GPS BIIF-12

Last updated on Thu Apr 09 2026 00:02:35 GMT+0000 (Coordinated Universal Time)

1 41328U 16007A 26098.06476432 .00000025 00000+0 00000+0 0 9994 2 41328 55.4797 92.2380 0096033 246.7972 112.1968 2.00555200 74434
UTC large
Height (km)
Speed (km/s)
/
Latitude / Longitude
Inclination (degrees)
Orbital Period (minutes)
Azimuth
Elevation
Range (km)
Doppler Factor

Next 0 passes for location: London (51.5072 / 0.1276)

Sorry there are no passes over London.